Regional Weather Roundup
Issued by NWS

Home | Current Version | Previous Version | Graphics & Text | Print | Product List | Glossary On
Versions: 1 2 3 4 5 6 7 8 9 10 11 12 13 14 15 16 17 18 19 20 21 22 23 24 25 26 27 28 29 30 31 32 33 34 35 36 37 38 39 40 41 42 43 44 45 46 47 48 49 50
000
ASUS43 KIND 211159
RWRIN

WEATHER ROUNDUP FOR INDIANA
NATIONAL WEATHER SERVICE INDIANAPOLIS IN
800 AM EDT SUN SEP 21 2014

NOTE: "FAIR" INDICATES FEW OR NO CLOUDS BELOW 12,000 FEET WITH NO
SIGNIFICANT WEATHER AND/OR OBSTRUCTIONS TO VISIBILITY.

* - STATION DOES NOT REPORT WEATHER SUCH AS PRECIPITATION OR FOG.

+ - STATION NOT QUALITY CONTROLLED BY THE NATIONAL WEATHER SERVICE.
    USE DATA WITH CAUTION...ESPECIALLY DEWPOINT AND RELATIVE
    HUMIDITY OBSERVATIONS.

INZ001>003-010>013-019-020-211300-
NORTHWEST INDIANA

CITY           SKY/WX    TMP DP  RH WIND       PRES   REMARKS
GARY /AIRPORT/ CLEAR     59  54  82 W12       29.82R
VALPARAISO     CLEAR     57  53  86 W10       29.82R
6HR MIN TEMP:  57; 6HR MAX TEMP:  69; 6HR PCP:  0.06;


$$

LMZ046-743>745-211300-
SOUTHERN LAKE MICHIGAN

STATION/POSITION TIME  TEMP WIND        PRES
                       AIR  DIR/SP/G
                 (UTC) (F)  (DEG/KT/KT) (MB)
MICHIGAN CITY    1100   62  260/ 27/ 31   N/A

$$

INZ004-005-014>016-021>024-211300-
NORTH CENTRAL INDIANA

CITY           SKY/WX    TMP DP  RH WIND       PRES   REMARKS
GOSHEN         PTCLDY   N/A N/A N/A W13       29.76R
                                      6HR PCP:  0.02;

SOUTH BEND     PTCLDY    60  52  74 W16       29.77R
6HR MIN TEMP:  60; 6HR MAX TEMP:  69; 6HR PCP:  0.01;

WARSAW +       PTCLDY    61  57  88 W18       29.77S

$$

INZ006>009-017-018-025>027-211300-
NORTHEAST INDIANA

CITY           SKY/WX    TMP DP  RH WIND       PRES   REMARKS
ANGOLA *+      PTCLDY    63  54  72 W9        29.73R
FORT WAYNE     PTCLDY    63  59  87 W18       29.77R
6HR MIN TEMP:  63; 6HR MAX TEMP:  69; 6HR PCP:  0.04;


$$

INZ028-029-035-036-043>045-051>053-211300-
WEST CENTRAL INDIANA

CITY           SKY/WX    TMP DP  RH WIND       PRES   REMARKS
GREENCASTLE +  MOCLDY    66  63  88 W8        29.89R
LAFAYETTE      CLEAR     59  57  93 W12       29.86R
6HR MIN TEMP:  58; 6HR MAX TEMP:  68;

TERRE HAUTE    MOCLDY    68  63  84 NW12G21   29.90R
6HR MIN TEMP:  68; 6HR MAX TEMP:  73; 6HR PCP:  0.18;


$$

INZ030>032-037>040-046>048-054>057-064-065-211300-
CENTRAL INDIANA

CITY           SKY/WX    TMP DP  RH WIND       PRES   REMARKS
FRANKFORT +    CLEAR    N/A N/A N/A W14       29.87R
INDIANAPOLIS   MOCLDY    68  63  84 W16       29.85R
6HR MIN TEMP:  68; 6HR MAX TEMP:  73; 6HR PCP:  0.04;

-EAGLE CREEK   CLOUDY    68  63  84 W13       29.85R
6HR MIN TEMP:  68; 6HR MAX TEMP:  72; 6HR PCP:  0.04;

KOKOMO *+      PTCLDY    63  55  77 W16       29.83R
MT COMFORT *+  MOCLDY    68  66  94 W14       29.85R
SHELBYVILLE    MOCLDY    71  67  87 W12       29.85R
6HR MIN TEMP:  70; 6HR MAX TEMP:  75; 6HR PCP:  0.08;


$$

INZ033-034-041-042-049-050-058-059-211300-
EAST CENTRAL INDIANA

CITY           SKY/WX    TMP DP  RH WIND       PRES   REMARKS
MUNCIE         MOCLDY    68  63  84 W13G22    29.81R
6HR MIN TEMP:  68; 6HR MAX TEMP:  70; 6HR PCP:  0.07;


$$

INZ060-061-067>069-081>083-085>088-211300-
SOUTHWEST INDIANA

CITY           SKY/WX    TMP DP  RH WIND       PRES   REMARKS
EVANSVILLE     MOCLDY    69  67  93 SW6       29.92S
6HR MIN TEMP:  68; 6HR MAX TEMP:  72; 6HR PCP:  0.91;


$$

INZ062-063-066-070>080-084-089>092-211300-
SOUTH CENTRAL AND SOUTHEAST INDIANA

CITY           SKY/WX    TMP DP  RH WIND       PRES   REMARKS
BLOOMINGTON    CLOUDY    69  66  90 W8        29.89R
6HR MIN TEMP:  69; 6HR MAX TEMP:  74; 6HR PCP:  0.08;


$$




USA.gov is the U.S. government's official web portal to all federal, state and local government web resources and services.